Weather History for KBAB - August, 2013

Change the Weather History Date:

Thursday, August 29, 2013

  Actual Average Record
Temperature  
Mean Temperature 77 °F -  
Max Temperature 93 °F 90 °F 103 °F (2007)
Min Temperature 62 °F 61 °F 56 °F (2012)
Cooling Degree Days 12    
Growing Degree Days 27 (Base 50)    
Moisture  
Dew Point 53 °F    
Average Humidity 50    
Maximum Humidity 83    
Minimum Humidity 20    
Precipitation  
Precipitation 0.00 in - - ()
Sea Level Pressure  
Sea Level Pressure 30.16 in    
Wind  
Wind Speed 7 mph (South)    
Max Wind Speed 14 mph    
Max Gust Speed -    
Visibility 10 miles    
Events      
Averages and records for this station are not official NWS values.
T = Trace of Precipitation, MM = Missing Value Source: NWS Daily Summary

Daily Weather History Graph

Daily Weather History Graph

Search for Another Location

Airport or City:

Trip Planner

Search our weather history database for the weather conditions in past years. The results will help you decide how hot, cold, wet, or windy it might be!

Date:

Astronomy

Aug. 29, 2013 Rise Set
Actual Time 6:32 AM PDT 7:40 PM PDT
Civil Twilight 6:04 AM PDT 8:07 PM PDT
Nautical Twilight 5:31 AM PDT 8:40 PM PDT
Astronomical Twilight 4:57 AM PDT 9:14 PM PDT
Moon 12:28 AM PDT (8/29) 3:12 PM PDT (8/29)
Length of Visible Light 14h 03m
Length of Day
13h 08m
Last Quarter, 37% of the Moon is Illuminated
Aug 29
Last Quarter
Sep 5
New
Sep 12
First Quarter
Sep 19
Full
Sep 26
Last Quarter

Hourly Weather History & Observations

Time (PDT) Temp. Heat Index Dew Point Humidity Pressure Visibility Wind Dir Wind Speed Gust Speed Precip Events Conditions
12:58 AM 65.7 °F - 54.0 °F 66% 30.09 in 10.0 mi South 5.8 mph - N/A   Clear
1:58 AM 63.9 °F - 57.4 °F 79% 30.10 in 10.0 mi SSE 8.1 mph - N/A   Clear
2:58 AM 63.3 °F - 57.9 °F 83% 30.10 in 10.0 mi SSE 9.2 mph - N/A   Clear
3:58 AM 64.9 °F - 59.0 °F 81% 30.12 in 10.0 mi SSE 6.9 mph - N/A   Clear
4:58 AM 64.6 °F - 58.6 °F 81% 30.13 in 10.0 mi SE 8.1 mph - N/A   Clear
5:58 AM 63.7 °F - 58.5 °F 83% 30.15 in 10.0 mi SSE 6.9 mph - N/A   Clear
6:58 AM 62.1 °F - 55.4 °F 79% 30.17 in 10.0 mi SSE 5.8 mph - N/A   Clear
7:58 AM 67.8 °F - 59.0 °F 73% 30.19 in 10.0 mi South 10.4 mph - N/A   Clear
8:58 AM 71.8 °F - 59.5 °F 65% 30.21 in 10.0 mi South 9.2 mph - N/A   Clear
9:58 AM 77.0 °F - 57.9 °F 52% 30.21 in 10.0 mi South 13.8 mph - N/A   Clear
10:58 AM 82.2 °F 82.0 °F 57.7 °F 43% 30.21 in 10.0 mi SSE 10.4 mph - N/A   Clear
11:58 AM 85.8 °F 84.3 °F 55.4 °F 35% 30.21 in 10.0 mi South 8.1 mph - N/A   Clear
12:58 PM 88.3 °F - 52.3 °F 29% 30.21 in 10.0 mi South 8.1 mph - N/A   Clear
1:58 PM 89.6 °F - 52.3 °F 28% 30.20 in 10.0 mi Variable 5.8 mph - N/A   Clear
2:58 PM 91.2 °F - 47.5 °F 22% 30.19 in 10.0 mi SSW 5.8 mph - N/A   Clear
3:58 PM 92.7 °F - 46.9 °F 21% 30.18 in 10.0 mi WSW 5.8 mph - N/A   Clear
4:58 PM 92.8 °F - 47.8 °F 21% 30.16 in 10.0 mi SSW 5.8 mph - N/A   Clear
5:58 PM 91.6 °F - 45.7 °F 20% 30.15 in 10.0 mi South 5.8 mph - N/A   Clear
6:58 PM 89.2 °F - 48.6 °F 25% 30.14 in 10.0 mi SSW 5.8 mph - N/A   Clear
7:58 PM 78.6 °F - 56.5 °F 46% 30.14 in 10.0 mi SW 5.8 mph - N/A   Clear
8:58 PM 76.5 °F - 49.5 °F 39% 30.15 in 10.0 mi ESE 5.8 mph - N/A   Clear
9:58 PM 71.8 °F - 42.8 °F 35% 30.17 in 10.0 mi SE 4.6 mph - N/A   Clear
10:58 PM 73.9 °F - 50.4 °F 43% 30.18 in 10.0 mi ESE 6.9 mph - N/A   Clear
11:58 PM 71.4 °F - 46.2 °F 41% 30.19 in 10.0 mi SSE 2.3 mph - N/A   Clear